{"data":{"norad_id":58118,"epoch":"2026-05-25T03:19:45.829632Z","epoch_age_seconds":63232,"freshness":"FRESH","line1":"1 58118U 23162A   26145.13872488 -.00000615  00000+0 -12841-4 0  9999","line2":"2 58118  43.0053  60.3558 0001014 253.1676 106.9065 15.27570576144004","mean_motion":15.27570576,"eccentricity":0.0001014,"inclination_deg":43.0053,"raan_deg":60.3558,"arg_perigee_deg":253.1676,"mean_anomaly_deg":106.9065,"bstar":-1.2841e-5,"rev_number":14400,"period_min":94.267330270965,"perigee_km":482.38158789945,"apogee_km":483.77304216254,"semimajor_km":6861.214315031,"source":"CELESTRAK","updated_at":"2026-05-25T13:38:18.530557Z"}}